Wind_Speed
42 42 43 40 37 38 36 35 33 29 29 28 28 29 30 32 32 31 32 33 33 32
41 43 43 44 43 38 35 31 31 27 27 27 27 28 28 29 28 27 28 29 29 30
42 41 41 39 41 39 35 32 30 28 29 28 29 29 28 28 26 26 26 26 27 27
45 42 39 38 39 38 36 32 31 30 29 29 30 30 29 28 26 26 26 27 26 26
40 39 36 37 37 37 34 33 31 30 29 30 29 29 29 28 27 26 25 24 25 25
35 35 35 34 36 34 34 32 32 31 31 30 30 29 29 28 27 25 22 23 24 22
31 31 32 32 32 34 35 34 33 32 31 31 30 29 29 28 27 26 24 24 24 22
24 26 27 29 31 35 36 34 33 33 32 31 30 29 29 28 26 24 22 21 21 22
21 24 29 29 32 36 36 35 34 34 33 31 30 29 27 25 23 22 21 18 19 18
21 24 28 31 33 36 37 36 37 35 33 32 30 28 25 23 22 22 21 20 19 18
25 26 27 31 34 36 37 37 37 35 32 29 27 25 24 22 21 20 17 15 19 22
25 28 31 34 36 37 37 38 37 34 31 29 27 25 22 20 18 18 21 19 19 17
25 29 33 35 37 36 37 36 35 34 31 28 25 24 24 19 16 20 23 21 19 18
24 27 31 35 37 36 37 34 34 32 30 29 26 24 21 19 19 18 21 23 21 19
Wind_Direction
241 241 241 235 231 237 236 237 239 243 242 242 242 241 241 242 246 248 250 254 256 258
242 243 244 241 237 234 234 233 237 238 233 232 233 234 236 240 244 246 250 254 257 258
247 247 248 237 231 229 232 232 231 229 228 228 230 231 233 237 242 244 248 252 255 256
243 244 241 228 225 227 228 226 224 225 227 230 230 230 231 236 241 243 250 254 255 258
238 235 231 220 220 222 221 218 218 222 226 230 232 230 231 234 240 245 251 255 260 258
230 224 220 214 215 215 212 212 216 220 227 231 232 230 231 236 239 241 249 253 253 255
223 218 214 211 209 208 208 213 218 224 225 227 226 228 231 235 240 244 250 255 255 259
220 213 211 206 204 205 209 214 217 218 219 220 221 225 229 233 236 240 246 252 255 259
218 208 207 206 205 210 210 210 213 214 215 215 218 223 223 226 231 235 240 247 249 242
230 220 213 210 211 211 210 210 211 212 213 214 215 216 219 225 233 239 241 242 239 229
245 237 227 217 216 214 211 211 212 212 212 210 215 220 223 225 232 235 233 231 226 211
253 242 238 236 232 225 216 212 212 209 211 214 218 221 214 215 223 213 206 202 201 211
261 255 246 240 234 226 219 214 208 209 211 211 215 211 210 203 207 204 202 200 211 214
266 258 251 241 235 223 216 212 209 211 207 205 208 203 208 204 210 215 218 213 210 213
Height
1453 1455 1457 1462 1465 1467 1470 1473 1477 1480 1483 1486 1489 1491 1494 1496 1499 1501 1503 1506 1508 1509
1443 1445 1447 1451 1454 1459 1462 1465 1469 1473 1476 1479 1481 1484 1487 1489 1492 1494 1496 1498 1500 1500
1433 1435 1437 1441 1444 1448 1453 1457 1461 1465 1468 1472 1475 1477 1480 1483 1485 1487 1489 1491 1492 1493
1422 1424 1426 1430 1434 1439 1444 1448 1452 1456 1460 1464 1467 1471 1473 1476 1479 1481 1482 1483 1484 1485
1411 1414 1417 1420 1425 1430 1435 1440 1444 1449 1453 1456 1460 1464 1467 1470 1472 1474 1476 1477 1478 1479
1400 1403 1406 1412 1417 1421 1427 1432 1437 1441 1445 1449 1453 1457 1460 1463 1465 1467 1469 1471 1472 1473
1391 1395 1400 1404 1409 1414 1419 1424 1429 1434 1438 1443 1447 1451 1454 1457 1459 1461 1463 1465 1466 1467
1386 1389 1395 1398 1402 1406 1411 1417 1423 1427 1432 1436 1440 1443 1447 1450 1453 1454 1456 1457 1459 1460
1382 1384 1386 1391 1395 1398 1404 1409 1415 1421 1424 1428 1432 1437 1440 1444 1447 1450 1450 1451 1453 1454
1378 1380 1382 1385 1389 1392 1397 1402 1408 1413 1417 1421 1426 1431 1435 1438 1441 1444 1446 1447 1449 1451
1374 1377 1380 1381 1384 1386 1390 1395 1401 1406 1411 1415 1420 1426 1430 1434 1436 1438 1441 1443 1445 1447
1368 1371 1373 1377 1380 1383 1386 1388 1394 1400 1404 1409 1414 1420 1425 1428 1431 1434 1436 1439 1443 1447
1363 1363 1366 1370 1373 1376 1381 1384 1389 1395 1398 1402 1408 1414 1419 1423 1426 1429 1432 1435 1439 1443
1356 1356 1358 1362 1365 1369 1373 1379 1386 1391 1396 1397 1402 1407 1414 1418 1423 1425 1429 1432 1433 1438